| time (UTC) | temp C | wind direction | speed KPH | gust KPH | rain 1hr cm | rain 24hr cm | rain mn cm | humidity % | barometer mb |
| 20260510224538 | 21 | 24 | 3.2 | 11.3 | 0.00 | 0.00 | 0.00 | 52 | 1019.6 |
| 20260510223050 | 21 | 0 | 1.6 | 9.7 | 0.00 | 0.00 | 0.00 | 53 | 1019.7 |
| 20260510221543 | 21 | 0 | 1.6 | 12.9 | 0.00 | 0.00 | 0.00 | 53 | 1019.7 |
| 20260510220045 | 21 | 92 | 3.2 | 8.0 | 0.00 | 0.00 | 0.00 | 51 | 1019.8 |
| 20260510214541 | 21 | 65 | 1.6 | 14.5 | 0.00 | 0.00 | 0.00 | 54 | 1019.9 |
| 20260510213101 | 21 | 209 | 0.0 | 4.8 | 0.00 | 0.00 | 0.00 | 54 | 1020.0 |
| 20260510211542 | 20 | 10 | 3.2 | 8.0 | 0.00 | 0.00 | 0.00 | 55 | 1020.0 |
| 20260510210043 | 20 | 360 | 3.2 | 11.3 | 0.00 | 0.00 | 0.00 | 55 | 1020.0 |
| 20260510204544 | 20 | 204 | 0.0 | 6.4 | 0.00 | 0.00 | 0.00 | 58 | 1020.2 |
| 20260510203045 | 19 | 221 | 0.0 | 3.2 | 0.00 | 0.00 | 0.00 | 60 | 1020.1 |
| 20260510201542 | 18 | 5 | 3.2 | 8.0 | 0.00 | 0.00 | 0.00 | 61 | 1020.3 |
| 20260510200047 | 18 | 245 | 1.6 | 6.4 | 0.00 | 0.00 | 0.00 | 62 | 1020.5 |
| 20260510194542 | 18 | 0 | 0.0 | 4.8 | 0.00 | 0.00 | 0.00 | 63 | 1020.7 |
| 20260510193043 | 17 | 0 | 0.0 | 6.4 | 0.00 | 0.00 | 0.00 | 64 | 1020.6 |
| 20260510191542 | 17 | 20 | 1.6 | 6.4 | 0.00 | 0.00 | 0.00 | 66 | 1020.5 |
| 20260510190057 | 16 | 232 | 0.0 | 6.4 | 0.00 | 0.00 | 0.00 | 68 | 1020.5 |
| 20260510184545 | 16 | 0 | 0.0 | 6.4 | 0.00 | 0.00 | 0.00 | 71 | 1020.6 |
| 20260510183044 | 15 | 0 | 0.0 | 4.8 | 0.00 | 0.00 | 0.00 | 73 | 1020.6 |
| 20260510181552 | 15 | 0 | 0.0 | 4.8 | 0.00 | 0.00 | 0.00 | 73 | 1020.6 |
| 20260510180138 | 15 | 0 | 0.0 | 4.8 | 0.00 | 0.00 | 0.00 | 74 | 1020.4 |
| 20260510174558 | 15 | 0 | 0.0 | 4.8 | 0.00 | 0.00 | 0.00 | 74 | 1020.4 |
| 20260510173053 | 14 | 0 | 0.0 | 3.2 | 0.00 | 0.00 | 0.00 | 76 | 1020.3 |
| 20260510171607 | 14 | 5 | 0.0 | 4.8 | 0.00 | 0.00 | 0.00 | 76 | 1020.1 |
| 20260510170052 | 13 | 248 | 0.0 | 4.8 | 0.00 | 0.00 | 0.00 | 77 | 1020.0 |
| 20260510164557 | 13 | 0 | 1.6 | 4.8 | 0.00 | 0.00 | 0.00 | 77 | 1020.0 |
| 20260510163054 | 13 | 0 | 0.0 | 4.8 | 0.00 | 0.00 | 0.00 | 77 | 1019.9 |
| 20260510161542 | 13 | 29 | 0.0 | 4.8 | 0.00 | 0.00 | 0.00 | 78 | 1019.8 |
| 20260510160047 | 13 | 0 | 0.0 | 4.8 | 0.00 | 0.00 | 0.00 | 80 | 1019.8 |
| 20260510154543 | 12 | 49 | 0.0 | 6.4 | 0.00 | 0.00 | 0.00 | 80 | 1019.8 |
| 20260510153051 | 12 | 0 | 0.0 | 6.4 | 0.00 | 0.00 | 0.00 | 79 | 1019.5 |
| 20260510151544 | 12 | 0 | 0.0 | 3.2 | 0.00 | 0.00 | 0.00 | 81 | 1019.5 |
| 20260510150051 | 12 | 71 | 0.0 | 8.0 | 0.00 | 0.00 | 0.00 | 82 | 1019.5 |
| 20260510144557 | 12 | 0 | 0.0 | 3.2 | 0.00 | 0.00 | 0.00 | 82 | 1019.3 |
| 20260510143051 | 12 | 217 | 0.0 | 0.0 | 0.00 | 0.00 | 0.00 | 85 | 1019.0 |
| 20260510141546 | 11 | 0 | 0.0 | 0.0 | 0.00 | 0.00 | 0.00 | 86 | 1019.0 |
| 20260510140045 | 11 | 0 | 0.0 | 0.0 | 0.00 | 0.00 | 0.00 | 87 | 1018.8 |
| 20260510134550 | 11 | 0 | 0.0 | 3.2 | 0.00 | 0.00 | 0.00 | 89 | 1018.6 |
| 20260510133047 | 10 | 0 | 0.0 | 3.2 | 0.00 | 0.00 | 0.00 | 88 | 1018.7 |
| 20260510131547 | 10 | 0 | 0.0 | 0.0 | 0.00 | 0.00 | 0.00 | 88 | 1018.8 |
| 20260510130046 | 11 | 0 | 0.0 | 0.0 | 0.00 | 0.00 | 0.00 | 87 | 1018.7 |
| 20260510124542 | 11 | 0 | 0.0 | 1.6 | 0.00 | 0.00 | 0.00 | 86 | 1018.5 |
| 20260510123045 | 11 | 0 | 0.0 | 3.2 | 0.00 | 0.00 | 0.00 | 86 | 1018.4 |
| 20260510121542 | 11 | 0 | 0.0 | 3.2 | 0.00 | 0.00 | 0.00 | 86 | 1018.5 |
| 20260510120046 | 11 | 0 | 0.0 | 1.6 | 0.00 | 0.00 | 0.00 | 87 | 1018.4 |
| 20260510114556 | 11 | 92 | 0.0 | 1.6 | 0.00 | 0.00 | 0.00 | 88 | 1018.4 |
| 20260510113047 | 11 | 0 | 0.0 | 3.2 | 0.00 | 0.00 | 0.00 | 87 | 1018.3 |
| 20260510111543 | 11 | 0 | 0.0 | 0.0 | 0.00 | 0.00 | 0.00 | 87 | 1018.0 |
| 20260510104548 | 11 | 0 | 0.0 | 1.6 | 0.00 | 0.00 | 0.00 | 87 | 1017.9 |
| 20260510103052 | 11 | 0 | 0.0 | 1.6 | 0.00 | 0.00 | 0.00 | 88 | 1017.6 |
| 20260510101558 | 10 | 95 | 0.0 | 0.0 | 0.00 | 0.00 | 0.00 | 89 | 1017.8 |
| 20260510100054 | 11 | 0 | 0.0 | 0.0 | 0.00 | 0.00 | 0.00 | 88 | 1017.4 |
| 20260510094549 | 11 | 0 | 0.0 | 1.6 | 0.00 | 0.00 | 0.00 | 87 | 1017.2 |
| 20260510093051 | 11 | 0 | 0.0 | 0.0 | 0.00 | 0.00 | 0.00 | 87 | 1017.2 |
| 20260510091546 | 11 | 0 | 0.0 | 0.0 | 0.00 | 0.00 | 0.00 | 87 | 1016.9 |
| 20260510090048 | 11 | 0 | 0.0 | 1.6 | 0.00 | 0.00 | 0.00 | 87 | 1017.1 |
| 20260510084601 | 11 | 0 | 0.0 | 1.6 | 0.00 | 0.00 | 0.00 | 86 | 1017.0 |
| 20260510083043 | 11 | 0 | 0.0 | 0.0 | 0.00 | 0.00 | 0.00 | 86 | 1017.1 |
| 20260510081544 | 11 | 0 | 0.0 | 0.0 | 0.00 | 0.00 | 0.00 | 85 | 1016.7 |
| 20260510080100 | 11 | 0 | 0.0 | 1.6 | 0.00 | 0.00 | 0.00 | 84 | 1016.9 |
| 20260510074544 | 12 | 0 | 0.0 | 0.0 | 0.00 | 0.00 | 0.00 | 84 | 1017.0 |
| 20260510073053 | 12 | 0 | 0.0 | 0.0 | 0.00 | 0.00 | 0.00 | 83 | 1017.1 |
| 20260510071547 | 12 | 0 | 0.0 | 0.0 | 0.00 | 0.00 | 0.00 | 82 | 1017.0 |
| 20260510070050 | 12 | 0 | 0.0 | 0.0 | 0.00 | 0.00 | 0.00 | 81 | 1016.8 |
| 20260510064552 | 12 | 0 | 0.0 | 0.0 | 0.00 | 0.00 | 0.00 | 80 | 1016.6 |
| 20260510063043 | 13 | 0 | 0.0 | 1.6 | 0.00 | 0.00 | 0.00 | 78 | 1016.6 |
| 20260510061549 | 13 | 0 | 0.0 | 0.0 | 0.00 | 0.00 | 0.00 | 77 | 1016.5 |
| 20260510060050 | 13 | 0 | 0.0 | 1.6 | 0.00 | 0.00 | 0.00 | 75 | 1016.4 |
| 20260510054546 | 13 | 0 | 0.0 | 1.6 | 0.00 | 0.00 | 0.00 | 74 | 1016.4 |
| 20260510053048 | 13 | 0 | 0.0 | 3.2 | 0.00 | 0.00 | 0.00 | 72 | 1016.4 |
| 20260510051546 | 14 | 0 | 0.0 | 0.0 | 0.00 | 0.00 | 0.00 | 70 | 1016.3 |
| 20260510050055 | 15 | 0 | 0.0 | 0.0 | 0.00 | 0.00 | 0.00 | 67 | 1016.2 |
| 20260510044549 | 15 | 0 | 0.0 | 0.0 | 0.00 | 0.00 | 0.00 | 66 | 1016.1 |
| 20260510043048 | 15 | 0 | 0.0 | 0.0 | 0.00 | 0.00 | 0.00 | 64 | 1016.0 |
| 20260510041546 | 16 | 0 | 0.0 | 0.0 | 0.00 | 0.00 | 0.00 | 64 | 1015.8 |
| 20260510040055 | 17 | 0 | 0.0 | 0.0 | 0.00 | 0.00 | 0.00 | 62 | 1015.6 |
| 20260510034544 | 17 | 0 | 0.0 | 0.0 | 0.00 | 0.00 | 0.00 | 61 | 1015.3 |
| 20260510033053 | 18 | 0 | 0.0 | 0.0 | 0.00 | 0.00 | 0.00 | 55 | 1015.3 |
| 20260510031548 | 19 | 0 | 0.0 | 0.0 | 0.00 | 0.00 | 0.00 | 49 | 1015.1 |
| 20260510024543 | 21 | 0 | 0.0 | 0.0 | 0.00 | 0.00 | 0.00 | 43 | 1014.7 |
| 20260510023044 | 22 | 0 | 0.0 | 3.2 | 0.00 | 0.00 | 0.00 | 40 | 1014.7 |
| 20260510021635 | 23 | 0 | 0.0 | 3.2 | 0.00 | 0.00 | 0.00 | 37 | 1015.0 |
| 20260510020047 | 23 | 0 | 0.0 | 3.2 | 0.00 | 0.00 | 0.00 | 32 | 1015.0 |
| 20260510014557 | 23 | 342 | 0.0 | 4.8 | 0.00 | 0.00 | 0.00 | 31 | 1015.1 |
| 20260510013057 | 23 | 0 | 0.0 | 4.8 | 0.00 | 0.00 | 0.00 | 34 | 1015.2 |
| 20260510011546 | 23 | 0 | 0.0 | 4.8 | 0.00 | 0.00 | 0.00 | 34 | 1015.2 |
| 20260510010054 | 24 | 33 | 1.6 | 6.4 | 0.00 | 0.00 | 0.00 | 33 | 1015.4 |
| 20260510004544 | 23 | 11 | 0.0 | 4.8 | 0.00 | 0.00 | 0.00 | 33 | 1015.4 |
| 20260510003043 | 23 | 324 | 1.6 | 6.4 | 0.00 | 0.00 | 0.00 | 38 | 1015.4 |
| 20260510001544 | 24 | 360 | 3.2 | 14.5 | 0.00 | 0.00 | 0.00 | 41 | 1015.4 |
| 20260510000050 | 24 | 333 | 1.6 | 9.7 | 0.00 | 0.00 | 0.00 | 43 | 1015.4 |
| 20260509234545 | 23 | 229 | 1.6 | 14.5 | 0.00 | 0.00 | 0.00 | 47 | 1015.5 |
| 20260509233043 | 23 | 350 | 3.2 | 16.1 | 0.00 | 0.00 | 0.00 | 44 | 1015.7 |
| 20260509231547 | 23 | 15 | 1.6 | 12.9 | 0.00 | 0.00 | 0.00 | 49 | 1015.8 |
| 20260509230049 | 23 | 350 | 3.2 | 14.5 | 0.00 | 0.00 | 0.00 | 47 | 1015.9 |